Location: Gleizolles
(44.4833°N, 6.7667°E)
Time: 00:01:28
(UTC+00:00)

Vanguard 2 Rocket - Pass Details

Date: 18 June 2024
Orbit: 555 x 3302 km, 32.9° (Epoch: 24 July)

Event Time Altitude Azimuth Distance (km) Brightness Sun altitude
Rises 06:52:53 0° 268° (W) 7,046 10.9 29.9°
Reaches altitude 10° 06:58:18 10° 263° (W) 5,758 10.5 30.9°
Maximum altitude 07:13:12 44° 199° (SSW) 2,682 9.5 33.5°
Drops below altitude 10° 07:22:18 10° 131° (SE) 3,581 10.7 35.2°
Sets 07:24:51 0° 124° (SE) 4,256 11.0 35.6°
